Regional Weather Roundup
Issued by NWS

Home | Current Version | Previous Version | Text Only | Print | Product List | Glossary Off
Versions: 1 2 3 4 5 6 7 8 9 10 11 12 13 14 15 16 17 18 19 20 21 22 23 24 25 26 27 28 29 30 31 32 33 34 35 36 37 38 39 40 41 42 43 44 45 46 47 48 49 50

000
ASUS45 KBOU 171107
RWRCO

WEATHER ROUNDUP FOR COLORADO
NATIONAL WEATHER SERVICE DENVER/BOULDER CO
400 AM MST WED DEC 17 2014

NOTE: "FAIR" INDICATES FEW OR NO CLOUDS BELOW 12000 FEET WITH NO
SIGNIFICANT WEATHER AND/OR OBSTRUCTIONS TO VISIBILITY.

COZ001>005-013-030-031-171200-
...NORTHWEST COLORADO...

CITY           SKY/WX    TMP DP  RH WIND       PRES   REMARKS
CRAIG          CLOUDY    22  20  92 CALM      30.02F
HAYDEN         CLOUDY    27  23  86 E7        30.01F WCI  19
MEEKER         LGT SNOW  26  23  88 CALM      30.01F FOG
MOUNT WERNER   NOT AVBL
STEAMBOAT SPGS CLOUDY    22  20  93 CALM      30.01F
WALDEN         MOCLDY    10   7  85 SE5       29.99F WCI   2
$$

COZ006>008-011-171200-
...WEST CENTRAL VALLEYS...

CITY           SKY/WX    TMP DP  RH WIND       PRES   REMARKS
GRAND JUNCTION CLOUDY    31  28  89 CALM      30.02S
MONTROSE       CLOUDY    30  26  85 CALM      30.04F
EAGLE          CLOUDY    18  16  93 CALM      30.10S
RIFLE          CLOUDY    29  25  85 CALM      30.05S
DELTA          CLOUDY    34  28  77 NE7       30.04F WCI  28
NUCLA          CLOUDY    32  28  86 CALM      30.04F
$$

COZ017>023-064>068-171200-
...SOUTHWEST COLORADO...

CITY           SKY/WX    TMP DP  RH WIND       PRES   REMARKS
DURANGO        CLOUDY    32  25  75 E5        29.99F WCI  27
CORTEZ         MOCLDY    31  27  85 CALM      29.98F
PAGOSA SPRINGS CLOUDY    25  24  96 CALM      30.03F
TELLURIDE      CLOUDY    31  22  69 CALM      30.03F
WOLF CREEK PAS PTCLDY    14  14 100 MISG      30.04F
$$

COZ009-010-012-014-032>034-037-058>063-171200-
...CENTRAL COLORADO...

CITY           SKY/WX    TMP DP  RH WIND       PRES   REMARKS
ASPEN          CLOUDY    22  18  85 CALM      30.00F
BUENA VISTA    CLOUDY    19  13  77 CALM      30.02F
COPPER MTN     PTCLDY    19  12  73 S3        30.02F
BERTHOUD PASS  FAIR      12   9  85 MISG      30.02S
COTTONWOOD PAS CLOUDY    28  18  64 CALM      30.01F
GUNNISON       MOCLDY    12   7  79 CALM      30.09S
KREMMLING      LGT SNOW N/A N/A N/A CALM      30.08S
LEADVILLE      PTCLDY    11   7  84 VRB3      30.00F
MONARCH PASS   CLOUDY    16  12  86 MISG      30.11F
SALIDA         CLOUDY    26  15  61 NW8       30.09S WCI  18
SUNLIGHT       LGT SNOW  25  23  93 CALM      30.03F
WILKERSON PASS MOCLDY    19  14  79 SW5       30.05S WCI  13
$$

COZ069>075-171200-
...SAN LUIS VALLEY/SANGRE DE CRISTO MOUNTAINS...

CITY           SKY/WX    TMP DP  RH WIND       PRES   REMARKS
ALAMOSA        CLOUDY    16  12  84 W6        30.04S WCI   7
LA VETA PASS   MOCLDY    21  14  73 S8        30.01S WCI  12
SAGUACHE       CLOUDY    23  12  63 N8        30.03F WCI  14
$$

COZ035-036-038>040-171200-
...NORTHERN COLORADO FRONT RANGE...

CITY           SKY/WX    TMP DP  RH WIND       PRES   REMARKS
DENVER INTL AP MOCLDY    22  17  81 MISG      29.97F
DMNS CITY PARK   N/A     23  18  83 S2        29.97F
AURORA         PTCLDY    26  16  64 W2        29.97F
FRONT RANGE AP MOCLDY    27  19  74 SW3       29.98R
ERIE MUNI ARPT   N/A     18  17  95 CALM      29.99S
BOULDER MUN AP PTCLDY    25  23  93 CALM      29.97F
CENTENNIAL     MOCLDY    26  17  68 S6        29.95F WCI  19
BROOMFIELD     PTCLDY    25  23  93 CALM      29.97S
FORT COLLINS   CLOUDY    19  16  86 CALM      29.99F
LONGMONT       CLOUDY    21  18  90 CALM      30.00S
$$

COZ041-046-047-076>085-087-088-171200-
...PIKES PEAK/PALMER DIVIDE AND SOUTHERN FOOTHILLS...

CITY           SKY/WX    TMP DP  RH WIND       PRES   REMARKS
COLO. SPRINGS  MOCLDY    29  19  66 N8        29.95F WCI  21
A. F. ACADEMY  PTCLDY    24  16  73 N8        29.95F WCI  14
ELLICOTT       NOT AVBL
FALCON         MOCLDY    35  17  49 N8        29.97S WCI  28
FORT CARSON    MOCLDY    20  15  82 S7        29.95S WCI  11
LIMON          CLOUDY    13  10  88 NW3       29.98F
MONUMENT HILL  MOCLDY    28  18  64 SW5       29.95F WCI  23
TRINIDAD       CLOUDY    25  21  85 SE6       29.97F WCI  18
$$

COZ042>045-048>051-090-091-171200-
...NORTHEAST COLORADO...

CITY           SKY/WX    TMP DP  RH WIND       PRES   REMARKS
GREELEY ARPT   MOCLDY    16   9  73 N6        29.99F WCI   7
AKRON          FOG       16  16 100 SE12      29.99F VSB 1/4 WCI   3
BURLINGTON     CLOUDY    22  20  92 SE9       30.05S FOG     WCI  12
WRAY           CLOUDY    23  23 100 SE12      30.08F WCI  12
STERLING       MOCLDY    19  19 100 S7        30.04S WCI  10
HOLYOKE        NOT AVBL
FORT MORGAN    MOCLDY    11   9  90 NE6       30.02S WCI   1
$$

COZ086-089-092>099-171200-
...SOUTHEAST COLORADO...

CITY           SKY/WX    TMP DP  RH WIND       PRES   REMARKS
PUEBLO         NOT AVBL
LA JUNTA       CLOUDY    24  20  84 NW7       30.00F WCI  16
LAMAR          MOCLDY    26  23  88 W3        30.00F
SPRINGFIELD      N/A     24  21  88 W6        29.99F WCI  17
$$


USA.gov is the U.S. government's official web portal to all federal, state and local government web resources and services.